Content
SEND FEEDBACK

Daily
Averages
Monthly
Summary
United Kingdom

FELIXSTOWE, ENGLAND


Home > Europe > United Kingdom > England
Elevation: 10 feet     Latitude: 52 00N     Longitude: 001 18E

WEATHER
 
SELECT A DAY
Number of Records: 70,444;   Date Range: 8/10/96 - 12/16/14
 
SHARE

PRINT THIS DATA

[ ← Previous Day ]
WEATHER ALMANAC - SEPTEMBER 21, 2013
[ Next Day → ]
[ °C ]   °F
Weather ElementAverageHighLow
Temperature56.5 °F61 °F (3:50 pm)50 °F (4:50 am)
Dewpoint52.6 °F57.2 °F (5:50 pm)48 °F (6:50 am)
Humidity86.2 %100 % (9:50 pm)69 % (12:50 pm)
Barometer30.23 in30.28 in (9:50 pm)30.18 in (12:50 am)
Wind Speed6.9 mph12.7 mph (11:50 am)
Weather ElementAverage
Visibility7.4 mi
Wind DirectionSSW (217.7 °)

Weather ElementTotal
Precipitation---
Heating Degree Days9.5 (Base 65)
Growing Degree Days5.5 (Base 50)
Averaged from 26 records on September 21, 2013
WEATHER CONDITIONS BREAKOUT
WIND DIRECTION BREAKOUT
WEATHER BY HOUR - SEPTEMBER 21, 2013
[ °C ]   °F
Local TimeTemperatureDewpointHumidityBarometerVisibilityWind DirectionWind SpeedGust SpeedPrecipitationEventsConditions
12:50 AM55.4 °F50.0 °F82 %30.18 in6.2 miSSW (200°)2.3 mphOvercast
1:50 AM55.4 °F50.0 °F82 %30.18 in6.2 miSSE (150°)1.2 mphMostly Cloudy
2:50 AM53.6 °F48.2 °F82 %30.18 in6.2 miSSE (150°)3.5 mphMostly Cloudy
3:50 AM51.8 °F50.0 °F94 %30.18 in6.2 miSW (220°)4.6 mphOvercast
4:50 AM50.0 °F48.2 °F94 %30.18 in6.2 miSW (230°)3.5 mphMostly Cloudy
5:50 AM50.0 °F48.2 °F94 %30.18 in6.2 miSW (220°)3.5 mphScattered Clouds
6:50 AM50.0 °F48.0 °F89 %30.21 in12.0 miSW (220°)5.8 mph
7:50 AM51.8 °F48.2 °F88 %30.21 in6.2 miSW (230°)5.8 mphMostly Cloudy
8:50 AM53.6 °F48.2 °F82 %30.21 in6.2 miSW (220°)6.9 mphOvercast
9:50 AM56.0 °F49.0 °F71 %30.24 in17.0 miSW (230°)8.1 mphMostly Cloudy
9:50 AM55.4 °F50.0 °F82 %30.21 in6.2 miSW (230°)8.1 mphMostly Cloudy
10:50 AM59.0 °F50.0 °F72 %30.24 in6.2 miSW (220°)10.4 mphMostly Cloudy
11:50 AM59.0 °F51.8 °F77 %30.24 in6.2 miSW (220°)12.7 mphMostly Cloudy
12:50 PM60.8 °F51.8 °F72 %30.24 in6.2 miSW (220°)10.4 mphMostly Cloudy
12:50 PM60.0 °F52.0 °F69 %30.25 in16.0 miSW (220°)10.4 mphScattered Clouds
1:50 PM60.8 °F53.6 °F77 %30.24 in6.2 miSW (220°)11.5 mphMostly Cloudy
3:50 PM61.0 °F56.0 °F80 %30.25 in16.0 miWSW (240°)10.4 mphOvercast
5:50 PM60.8 °F57.2 °F88 %30.24 in6.2 miWSW (250°)8.1 mphOvercast
6:50 PM60.0 °F57.0 °F87 %30.25 in9.0 miSSW (210°)5.8 mphScattered Clouds
6:50 PM59.0 °F57.2 °F94 %30.24 in6.2 miSSW (210°)5.8 mphScattered Clouds
7:50 PM59.0 °F57.2 °F94 %30.24 in6.2 miSSW (200°)4.6 mphPartly Cloudy
8:50 PM59.0 °F57.2 °F94 %30.27 in6.2 miSW (220°)6.9 mphPartly Cloudy
9:50 PM57.0 °F56.0 °F97 %30.28 in6.0 miSW (230°)6.9 mphMist
9:50 PM57.2 °F57.2 °F100 %30.27 in5.6 miSW (230°)6.9 mphMist
10:50 PM57.2 °F57.2 °F100 %30.27 in3.7 miSW (230°)8.1 mphMist
11:50 PM57.2 °F57.2 °F100 %30.27 in1.6 miWSW (240°)6.9 mphPartly Cloudy
Hourly data recorded from EGUW, located miles away from Felixstowe, England







STORIES FROM OUR PARTNERS